• In Uzbekistan
  • List of Countries
  • For 7 days
  • Water Temperature
  • Satellite Maps
  • Weather Map
  • Weather Widgets
  • user-avatar
    Login

    Hourly Weather Klagenfurt

    Today, 20 October, Friday

    Time Temperature Precipitation Wind Pressure Humidity
    00:00 +8°C° 0 mm 1 mps 690 mmHg 83%
    01:00 +8°C° 0 mm 1 mps 690 mmHg 83%
    02:00 +8°C° 0 mm 1 mps 690 mmHg 83%
    03:00 +7°C° 0 mm 1 mps 690 mmHg 83%
    04:00 +7°C° 0 mm 1 mps 689 mmHg 83%
    05:00 +7°C° 0 mm 1 mps 690 mmHg 83%
    06:00 +7°C° 0 mm 1 mps 690 mmHg 83%
    07:00 +7°C° 0 mm 1 mps 690 mmHg 82%
    08:00 +10°C° 0 mm 1 mps 690 mmHg 74%
    09:00 +13°C° 0 mm 1 mps 691 mmHg 65%
    10:00 +15°C° 0 mm 1 mps 691 mmHg 57%
    11:00 +16°C° 0 mm 1 mps 692 mmHg 54%
    12:00 +17°C° 0 mm 2 mps 692 mmHg 52%
    13:00 +18°C° 0 mm 2 mps 692 mmHg 50%
    14:00 +17°C° 0 mm 2 mps 692 mmHg 55%
    15:00 +16°C° 0 mm 1 mps 691 mmHg 61%
    16:00 +15°C° 0 mm 1 mps 691 mmHg 66%
    17:00 +14°C° 0 mm 1 mps 691 mmHg 73%
    18:00 +12°C° 0 mm 1 mps 691 mmHg 80%
    19:00 +10°C° 0 mm 1 mps 691 mmHg 88%
    20:00 +9°C° 0 mm 1 mps 691 mmHg 88%
    21:00 +9°C° 0 mm 1 mps 692 mmHg 88%
    22:00 +9°C° 0 mm 1 mps 692 mmHg 88%
    23:00 +8°C° 0 mm 1 mps 692 mmHg 88%

    Tomorrow, 21 October, Saturday

    Time Temperature Precipitation Wind Pressure Humidity
    00:00 +8°C° 0 mm 1 mps 692 mmHg 87%
    01:00 +8°C° 0 mm 1 mps 692 mmHg 87%
    02:00 +8°C° 0 mm 1 mps 692 mmHg 87%
    03:00 +8°C° 0 mm 1 mps 691 mmHg 86%
    04:00 +8°C° 0 mm 1 mps 691 mmHg 86%
    05:00 +8°C° 0 mm 1 mps 691 mmHg 86%
    06:00 +8°C° 0 mm 1 mps 691 mmHg 86%
    07:00 +8°C° 0 mm 1 mps 691 mmHg 86%
    08:00 +10°C° 0 mm 1 mps 692 mmHg 77%
    09:00 +13°C° 0 mm 1 mps 692 mmHg 68%
    10:00 +16°C° 0 mm 1 mps 693 mmHg 59%
    11:00 +16°C° 0 mm 1 mps 693 mmHg 57%
    12:00 +18°C° 0 mm 1 mps 692 mmHg 54%
    13:00 +19°C° 0 mm 1 mps 692 mmHg 52%
    14:00 +18°C° 0 mm 1 mps 692 mmHg 57%
    15:00 +16°C° 0 mm 1 mps 692 mmHg 63%
    16:00 +16°C° 0 mm 1 mps 691 mmHg 68%
    17:00 +14°C° 0 mm 1 mps 691 mmHg 75%
    18:00 +12°C° 0 mm 1 mps 691 mmHg 82%
    19:00 +10°C° 0 mm 1 mps 690 mmHg 90%
    20:00 +10°C° 0 mm 1 mps 690 mmHg 90%
    21:00 +10°C° 0 mm 1 mps 690 mmHg 91%
    22:00 +9°C° 0 mm 1 mps 690 mmHg 92%
    23:00 +9°C° 0 mm 1 mps 690 mmHg 92%

    Day after tomorrow, 22 October, Sunday

    Time Temperature Precipitation Wind Pressure Humidity
    00:00 +9°C° 0 mm 1 mps 690 mmHg 92%
    01:00 +9°C° 0 mm 1 mps 690 mmHg 92%
    02:00 +9°C° 0 mm 1 mps 690 mmHg 92%
    03:00 +9°C° 0 mm 1 mps 689 mmHg 92%
    04:00 +9°C° 0 mm 1 mps 689 mmHg 92%
    05:00 +9°C° 0 mm 1 mps 689 mmHg 92%
    06:00 +9°C° 0 mm 1 mps 689 mmHg 91%
    07:00 +9°C° 0 mm 1 mps 689 mmHg 91%
    08:00 +10°C° 0.1 mm 1 mps 689 mmHg 85%
    09:00 +12°C° 0.1 mm 1 mps 689 mmHg 79%
    10:00 +13°C° 0.1 mm 0 mps 690 mmHg 73%
    11:00 +13°C° 1.8 mm 1 mps 689 mmHg 79%
    12:00 +12°C° 1.8 mm 1 mps 688 mmHg 85%
    13:00 +12°C° 1.8 mm 1 mps 688 mmHg 91%
    14:00 +11°C° 3.5 mm 1 mps 687 mmHg 92%
    15:00 +11°C° 3.5 mm 1 mps 687 mmHg 94%
    16:00 +10°C° 3.5 mm 1 mps 687 mmHg 95%
    17:00 +8°C° 3.3 mm 2 mps 687 mmHg 95%
    18:00 +8°C° 3.3 mm 2 mps 687 mmHg 95%
    19:00 +7°C° 3.3 mm 2 mps 687 mmHg 95%
    20:00 +7°C° 0.8 mm 2 mps 687 mmHg 93%
    21:00 +6°C° 0.8 mm 2 mps 687 mmHg 92%
    22:00 +6°C° 0.8 mm 2 mps 688 mmHg 91%
    23:00 +6°C° 0.2 mm 2 mps 687 mmHg 90%

    23 October, Monday

    Time Temperature Precipitation Wind Pressure Humidity
    00:00 +5°C° 0.2 mm 2 mps 687 mmHg 90%
    01:00 +5°C° 0.2 mm 2 mps 687 mmHg 89%
    02:00 +5°C° 0.2 mm 2 mps 687 mmHg 89%
    03:00 +4°C° 0.2 mm 2 mps 687 mmHg 89%
    04:00 +5°C° 0.2 mm 1 mps 687 mmHg 90%
    05:00 +5°C° 0.1 mm 1 mps 687 mmHg 89%
    06:00 +5°C° 0.1 mm 1 mps 687 mmHg 89%
    07:00 +5°C° 0.1 mm 1 mps 687 mmHg 88%
    08:00 +6°C° 0 mm 1 mps 687 mmHg 83%
    09:00 +6°C° 0 mm 2 mps 687 mmHg 78%
    10:00 +7°C° 0 mm 2 mps 688 mmHg 73%
    11:00 +8°C° 0 mm 2 mps 688 mmHg 67%
    12:00 +9°C° 0 mm 2 mps 688 mmHg 60%
    13:00 +10°C° 0 mm 2 mps 688 mmHg 54%
    14:00 +10°C° 0 mm 2 mps 688 mmHg 57%
    15:00 +9°C° 0 mm 2 mps 688 mmHg 60%
    16:00 +9°C° 0 mm 2 mps 688 mmHg 63%
    17:00 +8°C° 0 mm 1 mps 688 mmHg 68%
    18:00 +7°C° 0 mm 1 mps 688 mmHg 72%
    19:00 +5°C° 0 mm 1 mps 688 mmHg 76%
    20:00 +5°C° 0 mm 1 mps 689 mmHg 77%
    21:00 +4°C° 0 mm 1 mps 689 mmHg 78%
    22:00 +4°C° 0 mm 1 mps 689 mmHg 79%
    23:00 +4°C° 0 mm 1 mps 689 mmHg 80%

    24 October, Tuesday

    Time Temperature Precipitation Wind Pressure Humidity
    00:00 +4°C° 0 mm 1 mps 689 mmHg 81%
    01:00 +4°C° 0 mm 1 mps 689 mmHg 81%
    02:00 +4°C° 0 mm 1 mps 689 mmHg 82%
    03:00 +3°C° 0 mm 1 mps 689 mmHg 82%
    04:00 +3°C° 0 mm 1 mps 689 mmHg 83%
    05:00 +3°C° 0 mm 1 mps 689 mmHg 83%
    06:00 +4°C° 0 mm 1 mps 690 mmHg 83%
    07:00 +4°C° 0 mm 1 mps 690 mmHg 82%
    08:00 +6°C° 0 mm 1 mps 691 mmHg 74%
    09:00 +9°C° 0 mm 1 mps 691 mmHg 66%
    10:00 +12°C° 0 mm 1 mps 692 mmHg 58%
    11:00 +12°C° 0 mm 2 mps 692 mmHg 56%
    12:00 +13°C° 0 mm 2 mps 692 mmHg 53%
    13:00 +14°C° 0 mm 2 mps 692 mmHg 50%
    14:00 +13°C° 0 mm 2 mps 692 mmHg 55%
    15:00 +13°C° 0 mm 2 mps 692 mmHg 60%
    16:00 +12°C° 0 mm 2 mps 692 mmHg 65%
    17:00 +10°C° 0 mm 1 mps 692 mmHg 71%
    18:00 +8°C° 0 mm 1 mps 693 mmHg 77%
    19:00 +6°C° 0 mm 1 mps 693 mmHg 83%
    20:00 +6°C° 0 mm 1 mps 693 mmHg 84%
    21:00 +6°C° 0 mm 1 mps 693 mmHg 85%
    22:00 +6°C° 0 mm 1 mps 694 mmHg 86%
    23:00 +5°C° 0 mm 1 mps 694 mmHg 87%

    25 October, Wednesday

    Time Temperature Precipitation Wind Pressure Humidity
    00:00 +5°C° 0 mm 1 mps 694 mmHg 88%
    01:00 +5°C° 0 mm 1 mps 694 mmHg 89%
    02:00 +5°C° 0 mm 1 mps 694 mmHg 89%
    03:00 +5°C° 0 mm 1 mps 694 mmHg 90%
    04:00 +5°C° 0 mm 1 mps 694 mmHg 91%
    05:00 +5°C° 0 mm 1 mps 695 mmHg 91%
    06:00 +5°C° 0 mm 1 mps 695 mmHg 91%
    07:00 +5°C° 0 mm 1 mps 695 mmHg 91%
    08:00 +8°C° 0 mm 1 mps 696 mmHg 83%
    09:00 +10°C° 0 mm 1 mps 696 mmHg 75%
    10:00 +13°C° 0 mm 1 mps 697 mmHg 67%
    11:00 +14°C° 0 mm 1 mps 697 mmHg 64%
    12:00 +15°C° 0 mm 1 mps 697 mmHg 61%
    13:00 +16°C° 0 mm 1 mps 697 mmHg 58%
    14:00 +15°C° 0 mm 1 mps 697 mmHg 63%
    15:00 +14°C° 0 mm 1 mps 696 mmHg 69%
    16:00 +14°C° 0 mm 1 mps 696 mmHg 74%
    17:00 +12°C° 0 mm 1 mps 696 mmHg 79%
    18:00 +10°C° 0 mm 1 mps 696 mmHg 84%
    19:00 +8°C° 0 mm 1 mps 696 mmHg 88%
    20:00 +8°C° 0 mm 1 mps 697 mmHg 89%
    21:00 +8°C° 0 mm 1 mps 697 mmHg 89%
    22:00 +7°C° 0 mm 1 mps 697 mmHg 89%
    23:00 +7°C° 0 mm 1 mps 697 mmHg 89%
    Show more